Content
SEND FEEDBACK

Daily
Averages
Monthly
Summary
United States of America

WAPPINGERS FALLS, NEW YORK


Home > North America > United States > New York
Elevation: 155 feet     Latitude: 41 38N     Longitude: 073 53W

WEATHER
 
SELECT A DAY
Number of Records: 198,297;   Date Range: 1/1/95 - 11/21/14
 
SHARE

PRINT THIS DATA

[ ← Previous Day ]
WEATHER ALMANAC - JANUARY 31, 2013
[ Next Day → ]
[ °C ]   °F
Weather ElementAverageHighLow
Temperature47.9 °F62.1 °F (2:53 am)28.9 °F (11:53 pm)
Dewpoint36.5 °F55.9 °F (2:53 am)7 °F (11:53 pm)
Humidity68.2 %96 % (12:53 am)28 % (3:53 pm)
Barometer29.28 in29.71 in (11:53 pm)28.98 in (5:53 am)
Wind Speed12.3 mph26.5 mph (8:53 am)
Wind Gust35.7 mph (8:53 am)
Weather ElementAverage
Visibility7 mi
Wind DirectionS (181.1 °)

Weather ElementTotal
Precipitation2.25 in
Heating Degree Days19.5 (Base 65)
Averaged from 35 records on January 31, 2013
WEATHER CONDITIONS BREAKOUT
WIND DIRECTION BREAKOUT
WEATHER BY HOUR - JANUARY 31, 2013
[ °C ]   °F
Local TimeTemperatureDewpointHumidityBarometerVisibilityWind DirectionWind SpeedGust SpeedPrecipitationEventsConditions
12:12 AM51.8 °F50.0 °F94 %29.32 in2.5 miCalm0.01 inRainLight Rain
12:24 AM51.8 °F50.0 °F94 %29.30 in1.0 miCalm0.02 inRainLight Rain
12:32 AM50.0 °F48.2 °F94 %29.30 in0.5 miCalm0.02 inFogFog
12:53 AM50.0 °F48.9 °F96 %29.26 in1.0 miCalm0.06 inRainLight Rain
1:04 AM51.8 °F48.2 °F88 %29.24 in3.0 miESE (120°)4.6 mph0.01 inRainLight Rain
1:24 AM51.8 °F50.0 °F94 %29.21 in3.0 miCalm0.02 inRainLight Rain
1:32 AM51.8 °F50.0 °F94 %29.20 in2.5 miCalm0.03 inRainLight Rain
1:40 AM53.6 °F51.8 °F94 %29.18 in6.0 miVariable3.5 mph0.04 inRainLight Rain
1:53 AM55.0 °F53.1 °F93 %29.16 in10.0 miSouth (190°)6.9 mph0.05 inRainLight Rain
2:53 AM62.1 °F55.9 °F80 %29.04 in10.0 miSouth (170°)16.1 mph29.9 mph0.02 inRainLight Rain
3:42 AM59.0 °F55.4 °F88 %29.02 in2.5 miWSW (240°)13.8 mph21.9 mph0.14 inRainHeavy Rain
3:46 AM59.0 °F55.4 °F88 %29.02 in1.8 miSW (220°)9.2 mph21.9 mph0.21 inRainHeavy Rain
3:53 AM59.0 °F55.0 °F87 %29.00 in1.8 miVariable6.9 mph20.7 mph0.30 inRainHeavy Rain
4:21 AM57.2 °F55.4 °F94 %29.05 in3.0 miSSW (210°)5.8 mph0.38 inRainRain
4:48 AM57.2 °F53.6 °F88 %29.07 in6.0 miSSW (210°)9.2 mph0.42 inRainLight Rain
4:53 AM57.0 °F54.0 °F89 %29.05 in6.0 miSSW (200°)8.1 mph0.43 inRainRain
5:53 AM59.0 °F52.0 °F78 %28.98 in10.0 miSSW (200°)6.9 mph0.05 inMostly Cloudy
6:53 AM55.0 °F46.9 °F74 %29.04 in5.0 miWSW (240°)25.3 mph32.2 mph0.03 inRainLight Rain
7:00 AM53.6 °F44.6 °F72 %29.06 in10.0 miWSW (240°)17.3 mph32.2 mph0.00 inOvercast
7:53 AM48.9 °F35.1 °F59 %29.13 in10.0 miWest (260°)21.9 mph29.9 mph0.01 inRainLight Rain
8:53 AM46.9 °F32.0 °F56 %29.20 in10.0 miWSW (250°)26.5 mph35.7 mph0.00 inMostly Cloudy
9:53 AM46.9 °F26.1 °F44 %29.26 in10.0 miWSW (250°)18.4 mph32.2 mphScattered Clouds
10:53 AM43.0 °F25.0 °F49 %29.31 in10.0 miWNW (290°)17.3 mph28.8 mphOvercast
11:53 AM44.1 °F19.0 °F37 %29.34 in10.0 miWest (280°)20.7 mph35.7 mphScattered Clouds
12:53 PM45.0 °F19.9 °F37 %29.36 in10.0 miWSW (240°)17.3 mph31.1 mphScattered Clouds
1:53 PM44.1 °F16.0 °F32 %29.38 in10.0 miWest (260°)21.9 mph27.6 mphPartly Cloudy
2:53 PM43.0 °F17.1 °F35 %29.42 in10.0 miWSW (250°)19.6 mph33.4 mphMostly Cloudy
3:53 PM42.1 °F10.9 °F28 %29.45 in10.0 miWest (270°)24.2 mph35.7 mphMostly Cloudy
4:53 PM37.0 °F18.0 °F46 %29.52 in10.0 miWSW (250°)23.0 mph33.4 mphScattered Clouds
5:53 PM34.0 °F19.9 °F56 %29.57 in10.0 miWSW (250°)16.1 mph27.6 mphMostly Cloudy
7:53 PM33.1 °F15.1 °F48 %29.64 in10.0 miWSW (250°)11.5 mphScattered Clouds
8:53 PM32.0 °F10.9 °F42 %29.66 in10.0 miWSW (240°)17.3 mph23.0 mphPartly Cloudy
9:53 PM30.9 °F15.1 °F52 %29.68 in10.0 miWest (260°)12.7 mph20.7 mphScattered Clouds
10:53 PM30.0 °F12.0 °F47 %29.69 in10.0 miWSW (250°)16.1 mph27.6 mph0.00 inScattered Clouds
11:53 PM28.9 °F7.0 °F40 %29.71 in10.0 miWSW (250°)11.5 mph20.7 mphPartly Cloudy
Hourly data recorded from KPOU, located miles away from Wappingers Falls, New York







STORIES FROM OUR PARTNERS